SWA724 KPHX-KOAK

Flight info

Callsign SWA724
Flight time 1h 32m
Altitude 32000
Route ZEPER2 RRSTA DOVEE BTY RUSME OAKES3
Aircraft B738/M-SDE2E3FGHIRWXY/LB1

Departure

Time 2026-05-07 03:03
Airport Phoenix Sky Harbor International Airport (KPHX)

Arrival

Time 2026-05-07 04:36
Airport San Francisco Bay Oakland International Airport (KOAK)
Time Latitude Longitude Altitude Speed Heading
2026-05-07 02:45 33.43364 -111.99733 1133 ft 0 kts 78°
2026-05-07 02:54 33.43363 -111.99738 1135 ft 2 kts 78°
2026-05-07 02:55 33.43360 -111.99754 1135 ft 2 kts 78°
2026-05-07 02:55 33.43357 -111.99769 1133 ft 2 kts 91°
2026-05-07 02:55 33.43362 -111.99784 1135 ft 2 kts 166°
2026-05-07 02:55 33.43364 -111.99784 1134 ft 0 kts 173°
2026-05-07 02:57 33.43362 -111.99784 1135 ft 1 kts 173°
2026-05-07 02:57 33.43348 -111.99783 1126 ft 2 kts 175°
2026-05-07 02:57 33.43333 -111.99781 1133 ft 2 kts 176°
2026-05-07 02:57 33.43317 -111.99779 1132 ft 3 kts 168°
2026-05-07 02:58 33.43284 -111.99751 1130 ft 9 kts 120°
2026-05-07 02:58 33.43282 -111.99683 1131 ft 9 kts 90°
2026-05-07 02:58 33.43283 -111.99611 1132 ft 9 kts 89°
2026-05-07 02:58 33.43283 -111.99539 1130 ft 8 kts 89°
2026-05-07 02:59 33.43283 -111.99469 1132 ft 8 kts 89°
2026-05-07 02:59 33.43284 -111.99402 1130 ft 8 kts 89°
2026-05-07 02:59 33.43265 -111.99348 1134 ft 8 kts 167°
2026-05-07 02:59 33.43217 -111.99347 1133 ft 0 kts 180°
2026-05-07 03:01 33.43216 -111.99347 1131 ft 1 kts 180°
2026-05-07 03:01 33.43193 -111.99347 1136 ft 4 kts 181°
2026-05-07 03:01 33.43168 -111.99348 1135 ft 4 kts 181°
2026-05-07 03:02 33.43143 -111.99348 1136 ft 3 kts 181°
2026-05-07 03:02 33.43120 -111.99356 1137 ft 4 kts 207°
2026-05-07 03:02 33.43104 -111.99389 1136 ft 5 kts 260°
2026-05-07 03:02 33.43103 -111.99430 1138 ft 5 kts 271°
2026-05-07 03:03 33.43105 -111.99638 1134 ft 58 kts 270°
2026-05-07 03:03 33.43101 -112.00403 1136 ft 123 kts 270°
2026-05-07 03:03 33.43099 -112.01650 1206 ft 169 kts 269°
2026-05-07 03:03 33.43080 -112.03117 1838 ft 178 kts 267°
2026-05-07 03:04 33.43059 -112.04609 2575 ft 181 kts 273°
2026-05-07 03:04 33.43123 -112.06155 3102 ft 199 kts 274°
2026-05-07 03:04 33.43195 -112.07914 3284 ft 223 kts 272°
2026-05-07 03:04 33.43254 -112.09838 3620 ft 238 kts 272°
2026-05-07 03:05 33.43312 -112.11828 4238 ft 242 kts 272°
2026-05-07 03:05 33.43370 -112.13862 4969 ft 245 kts 273°
2026-05-07 03:05 33.43432 -112.15918 5672 ft 250 kts 276°
2026-05-07 03:05 33.43902 -112.17871 6292 ft 251 kts 306°
2026-05-07 03:06 33.45184 -112.19245 6997 ft 247 kts 335°
2026-05-07 03:06 33.46843 -112.19737 7740 ft 248 kts 357°
2026-05-07 03:06 33.48574 -112.19748 8442 ft 250 kts
2026-05-07 03:06 33.50325 -112.19693 9164 ft 252 kts
2026-05-07 03:07 33.52086 -112.19643 9904 ft 254 kts
2026-05-07 03:07 33.53874 -112.19627 10428 ft 264 kts
2026-05-07 03:07 33.55798 -112.19784 10602 ft 289 kts 358°
2026-05-07 03:07 33.57885 -112.19994 10778 ft 311 kts 358°
2026-05-07 03:08 33.60123 -112.20209 10970 ft 331 kts 358°
2026-05-07 03:08 33.62425 -112.20429 11493 ft 339 kts 357°
2026-05-07 03:08 33.64778 -112.20937 12138 ft 346 kts 349°
2026-05-07 03:08 33.67116 -112.21692 12805 ft 351 kts 347°
2026-05-07 03:09 33.69473 -112.22514 13570 ft 351 kts 347°
2026-05-07 03:09 33.71812 -112.23329 14373 ft 351 kts 347°
2026-05-07 03:09 33.74182 -112.24136 14963 ft 357 kts 347°
2026-05-07 03:09 33.76593 -112.24939 15552 ft 361 kts 348°
2026-05-07 03:10 33.79032 -112.25739 16218 ft 365 kts 348°
2026-05-07 03:10 33.81493 -112.26540 16863 ft 369 kts 348°
2026-05-07 03:10 33.83990 -112.27349 17484 ft 373 kts 348°
2026-05-07 03:10 33.86504 -112.28162 18105 ft 377 kts 348°
2026-05-07 03:11 33.89052 -112.28987 18667 ft 381 kts 348°
2026-05-07 03:11 33.91624 -112.29821 19265 ft 383 kts 348°
2026-05-07 03:11 33.94212 -112.30660 19860 ft 385 kts 348°
2026-05-07 03:11 33.96777 -112.31492 20441 ft 388 kts 348°
2026-05-07 03:12 33.99392 -112.32340 20997 ft 391 kts 348°
2026-05-07 03:12 34.02023 -112.33248 21514 ft 396 kts 342°
2026-05-07 03:12 34.04423 -112.34938 22019 ft 406 kts 324°
2026-05-07 03:12 34.06606 -112.37118 22598 ft 408 kts 323°
2026-05-07 03:13 34.08781 -112.39345 23092 ft 412 kts 323°
2026-05-07 03:13 34.10967 -112.41589 23581 ft 415 kts 323°
2026-05-07 03:13 34.13175 -112.43849 24004 ft 418 kts 323°
2026-05-07 03:13 34.15406 -112.46118 24395 ft 421 kts 323°
2026-05-07 03:14 34.17660 -112.48401 24801 ft 423 kts 323°
2026-05-07 03:14 34.19929 -112.50690 25245 ft 424 kts 324°
2026-05-07 03:14 34.24489 -112.55303 25984 ft 431 kts 324°
2026-05-07 03:15 34.26768 -112.57599 26370 ft 434 kts 324°
2026-05-07 03:15 34.29099 -112.59953 26781 ft 436 kts 324°
2026-05-07 03:15 34.31431 -112.62311 27166 ft 438 kts 324°
2026-05-07 03:15 34.33781 -112.64690 27501 ft 441 kts 324°
2026-05-07 03:16 34.36141 -112.67080 27878 ft 443 kts 324°
2026-05-07 03:16 34.38499 -112.69473 28385 ft 442 kts 324°
2026-05-07 03:16 34.40845 -112.71856 28930 ft 439 kts 324°
2026-05-07 03:16 34.43189 -112.74238 29459 ft 438 kts 324°
2026-05-07 03:17 34.45516 -112.76604 29958 ft 437 kts 325°
2026-05-07 03:17 34.47816 -112.78943 30391 ft 436 kts 325°
2026-05-07 03:17 34.50132 -112.81301 30873 ft 433 kts 325°
2026-05-07 03:17 34.52428 -112.83639 31299 ft 431 kts 325°
2026-05-07 03:18 34.54724 -112.85979 31696 ft 429 kts 325°
2026-05-07 03:18 34.57012 -112.88314 31971 ft 431 kts 325°
2026-05-07 03:18 34.59320 -112.90671 31970 ft 435 kts 325°
2026-05-07 03:19 34.63934 -112.95410 31962 ft 429 kts 325°
2026-05-07 03:19 34.68441 -113.00040 31971 ft 428 kts 325°
2026-05-07 03:20 34.73001 -113.04731 31959 ft 430 kts 324°
2026-05-07 03:20 34.75192 -113.07224 31952 ft 436 kts 313°
2026-05-07 03:20 34.76765 -113.10411 31997 ft 444 kts 300°
2026-05-07 03:21 34.79469 -113.17184 31963 ft 446 kts 301°
2026-05-07 03:21 34.82202 -113.23960 31945 ft 446 kts 301°
2026-05-07 03:22 34.84963 -113.30728 31944 ft 446 kts 301°
2026-05-07 03:22 34.87729 -113.37483 31935 ft 445 kts 301°
2026-05-07 03:23 34.90487 -113.44228 31938 ft 444 kts 301°
2026-05-07 03:23 34.93236 -113.50966 31934 ft 443 kts 301°
2026-05-07 03:24 34.95969 -113.57681 31934 ft 442 kts 301°
2026-05-07 03:24 34.98684 -113.64360 31932 ft 442 kts 301°
2026-05-07 03:25 35.01428 -113.71121 31954 ft 451 kts 301°
2026-05-07 03:25 35.04257 -113.78102 31949 ft 464 kts 301°
2026-05-07 03:26 35.07148 -113.85258 31945 ft 475 kts 301°
2026-05-07 03:26 35.10085 -113.92557 31899 ft 481 kts 300°
2026-05-07 03:27 35.13023 -113.99863 31928 ft 478 kts 300°
2026-05-07 03:27 35.15928 -114.07119 32016 ft 478 kts 301°
2026-05-07 03:28 35.18854 -114.14436 31993 ft 478 kts 300°
2026-05-07 03:28 35.21770 -114.21740 31989 ft 478 kts 300°
2026-05-07 03:29 35.24684 -114.29052 31955 ft 477 kts 300°
2026-05-07 03:29 35.27595 -114.36376 31941 ft 477 kts 300°
2026-05-07 03:30 35.30495 -114.43689 31913 ft 476 kts 300°
2026-05-07 03:30 35.33360 -114.50930 31936 ft 475 kts 300°
2026-05-07 03:31 35.36243 -114.58230 31940 ft 475 kts 300°
2026-05-07 03:31 35.39112 -114.65512 31961 ft 474 kts 300°
2026-05-07 03:32 35.41978 -114.72802 31961 ft 474 kts 300°
2026-05-07 03:32 35.44398 -114.78840 31976 ft 472 kts 304°
2026-05-07 03:32 35.46878 -114.83166 31972 ft 465 kts 315°
2026-05-07 03:33 35.49041 -114.86100 31983 ft 464 kts 316°
2026-05-07 03:33 35.53341 -114.92004 31986 ft 464 kts 315°
2026-05-07 03:34 35.56915 -114.96985 31987 ft 464 kts 315°
2026-05-07 03:34 35.61138 -115.02922 31994 ft 464 kts 315°
2026-05-07 03:35 35.65381 -115.08909 32001 ft 464 kts 315°
2026-05-07 03:35 35.69623 -115.14903 32019 ft 464 kts 315°
2026-05-07 03:36 35.73867 -115.20905 32028 ft 464 kts 315°
2026-05-07 03:36 35.78096 -115.26901 32033 ft 464 kts 315°
2026-05-07 03:37 35.82321 -115.32900 32036 ft 463 kts 315°
2026-05-07 03:37 35.86575 -115.38843 32002 ft 459 kts 319°
2026-05-07 03:38 35.90773 -115.44732 32047 ft 461 kts 312°
2026-05-07 03:38 35.94868 -115.50826 32044 ft 460 kts 314°
2026-05-07 03:39 35.99057 -115.56816 32037 ft 460 kts 314°
2026-05-07 03:39 36.03258 -115.62801 32031 ft 461 kts 314°
2026-05-07 03:40 36.07452 -115.68802 32023 ft 461 kts 314°
2026-05-07 03:40 36.11613 -115.74780 32030 ft 461 kts 314°
2026-05-07 03:41 36.15795 -115.80803 32010 ft 461 kts 314°
2026-05-07 03:41 36.19979 -115.86839 32013 ft 461 kts 314°
2026-05-07 03:42 36.24149 -115.92866 31989 ft 460 kts 314°
2026-05-07 03:42 36.28316 -115.98900 31974 ft 460 kts 314°
2026-05-07 03:43 36.32474 -116.04931 31957 ft 460 kts 314°
2026-05-07 03:43 36.36625 -116.10962 31951 ft 460 kts 314°
2026-05-07 03:44 36.40770 -116.16996 31934 ft 459 kts 314°
2026-05-07 03:44 36.44910 -116.23033 31930 ft 459 kts 314°
2026-05-07 03:45 36.49019 -116.29036 31910 ft 459 kts 314°
2026-05-07 03:45 36.53154 -116.35087 31928 ft 459 kts 313°
2026-05-07 03:46 36.57285 -116.41144 31922 ft 459 kts 313°
2026-05-07 03:46 36.61413 -116.47207 31930 ft 459 kts 313°
2026-05-07 03:47 36.65514 -116.53243 31919 ft 459 kts 313°
2026-05-07 03:47 36.69642 -116.59329 31926 ft 459 kts 313°
2026-05-07 03:48 36.73762 -116.65415 31938 ft 459 kts 313°
2026-05-07 03:48 36.77882 -116.71510 31947 ft 459 kts 313°
2026-05-07 03:49 36.82201 -116.77353 31953 ft 456 kts 320°
2026-05-07 03:49 36.86983 -116.82566 31966 ft 455 kts 322°
2026-05-07 03:50 36.91781 -116.87723 31929 ft 455 kts 321°
2026-05-07 03:50 36.96513 -116.92898 31971 ft 454 kts 321°
2026-05-07 03:51 37.01248 -116.98137 31988 ft 455 kts 321°
2026-05-07 03:51 37.05976 -117.03387 31988 ft 454 kts 321°
2026-05-07 03:52 37.10712 -117.08652 31992 ft 454 kts 321°
2026-05-07 03:52 37.15424 -117.13899 32007 ft 454 kts 321°
2026-05-07 03:53 37.20136 -117.19153 32011 ft 453 kts 320°
2026-05-07 03:53 37.24814 -117.24380 32017 ft 452 kts 320°
2026-05-07 03:54 37.29502 -117.29628 32031 ft 451 kts 320°
2026-05-07 03:54 37.34188 -117.34879 32035 ft 451 kts 320°
2026-05-07 03:55 37.38864 -117.40131 32027 ft 451 kts 320°
2026-05-07 03:55 37.43543 -117.45395 32034 ft 451 kts 320°
2026-05-07 03:56 37.48088 -117.50833 31999 ft 454 kts 308°
2026-05-07 03:56 37.49654 -117.54300 32027 ft 459 kts 294°
2026-05-07 03:56 37.50488 -117.58199 32043 ft 463 kts 284°
2026-05-07 03:57 37.51624 -117.66150 32024 ft 464 kts 283°
2026-05-07 03:57 37.52727 -117.74167 32011 ft 465 kts 283°
2026-05-07 03:58 37.53872 -117.82184 32011 ft 465 kts 283°
2026-05-07 03:58 37.55041 -117.90204 32019 ft 465 kts 283°
2026-05-07 03:59 37.56211 -117.98219 32022 ft 465 kts 283°
2026-05-07 03:59 37.57378 -118.06244 32021 ft 465 kts 283°
2026-05-07 04:00 37.58536 -118.14270 32043 ft 465 kts 283°
2026-05-07 04:00 37.59684 -118.22249 32043 ft 464 kts 283°
2026-05-07 04:01 37.60738 -118.29649 32056 ft 464 kts 283°
2026-05-07 04:01 37.60798 -118.30068 32054 ft 464 kts 283°
2026-05-07 04:03 37.61355 -118.33984 32055 ft 464 kts 283°
2026-05-07 04:04 37.62490 -118.41985 32044 ft 463 kts 283°
2026-05-07 04:04 37.63620 -118.49990 32120 ft 463 kts 283°
2026-05-07 04:05 37.64735 -118.57927 32192 ft 462 kts 283°
2026-05-07 04:05 37.65851 -118.65917 32254 ft 462 kts 283°
2026-05-07 04:06 37.66961 -118.73904 32316 ft 462 kts 283°
2026-05-07 04:06 37.68066 -118.81901 32323 ft 462 kts 283°
2026-05-07 04:07 37.69167 -118.89909 32320 ft 462 kts 283°
2026-05-07 04:07 37.70262 -118.97909 32278 ft 463 kts 282°
2026-05-07 04:08 37.71351 -119.05915 32243 ft 463 kts 282°
2026-05-07 04:08 37.71895 -119.09922 32113 ft 463 kts 282°
2026-05-07 04:08 37.72437 -119.13933 32131 ft 463 kts 282°
2026-05-07 04:09 37.73516 -119.21948 32139 ft 463 kts 282°
2026-05-07 04:09 37.74591 -119.29973 32129 ft 463 kts 282°
2026-05-07 04:10 37.75660 -119.37995 32154 ft 463 kts 282°
2026-05-07 04:10 37.76715 -119.45961 32144 ft 463 kts 282°
2026-05-07 04:11 37.77774 -119.53993 32146 ft 464 kts 282°
2026-05-07 04:11 37.78828 -119.62041 32146 ft 463 kts 282°
2026-05-07 04:12 37.79874 -119.70065 32149 ft 463 kts 282°
2026-05-07 04:12 37.80918 -119.78110 32146 ft 462 kts 282°
2026-05-07 04:13 37.81949 -119.86115 32128 ft 461 kts 282°
2026-05-07 04:13 37.82978 -119.94136 32129 ft 461 kts 282°
2026-05-07 04:14 37.83984 -120.02045 32104 ft 446 kts 282°
2026-05-07 04:14 37.84955 -120.09697 32122 ft 442 kts 282°
2026-05-07 04:15 37.85927 -120.17391 32114 ft 443 kts 282°
2026-05-07 04:15 37.86894 -120.25095 32123 ft 443 kts 282°
2026-05-07 04:15 37.87378 -120.28960 31698 ft 448 kts 282°
2026-05-07 04:16 37.87862 -120.32856 31113 ft 448 kts 281°
2026-05-07 04:16 37.87966 -120.36792 30470 ft 452 kts 264°
2026-05-07 04:16 37.87332 -120.40685 29837 ft 454 kts 259°
2026-05-07 04:16 37.86620 -120.44610 29076 ft 455 kts 259°
2026-05-07 04:17 37.85923 -120.48483 28266 ft 447 kts 259°
2026-05-07 04:17 37.85252 -120.52294 27536 ft 439 kts 260°
2026-05-07 04:17 37.84607 -120.56031 26826 ft 430 kts 260°
2026-05-07 04:17 37.83991 -120.59652 26148 ft 423 kts 260°
2026-05-07 04:18 37.83379 -120.63267 25493 ft 415 kts 260°
2026-05-07 04:18 37.82780 -120.66807 24854 ft 409 kts 260°
2026-05-07 04:18 37.82188 -120.70302 24244 ft 403 kts 260°
2026-05-07 04:18 37.81604 -120.73737 23632 ft 398 kts 260°
2026-05-07 04:19 37.81025 -120.77135 22958 ft 392 kts 260°
2026-05-07 04:19 37.80455 -120.80473 22351 ft 385 kts 260°
2026-05-07 04:19 37.79893 -120.83754 21763 ft 379 kts 259°
2026-05-07 04:19 37.79337 -120.86985 21207 ft 373 kts 259°
2026-05-07 04:20 37.78970 -120.89105 20844 ft 369 kts 259°
2026-05-07 04:20 37.78245 -120.93268 20138 ft 363 kts 259°
2026-05-07 04:20 37.77705 -120.96366 19623 ft 359 kts 259°
2026-05-07 04:21 37.76819 -121.01448 18877 ft 351 kts 259°
2026-05-07 04:21 37.76294 -121.04444 18498 ft 349 kts 259°
2026-05-07 04:21 37.75769 -121.07450 18114 ft 351 kts 259°
2026-05-07 04:21 37.75245 -121.10458 17835 ft 351 kts 259°
2026-05-07 04:22 37.74721 -121.13476 17526 ft 351 kts 259°
2026-05-07 04:22 37.74195 -121.16492 17161 ft 352 kts 259°
2026-05-07 04:22 37.73668 -121.19517 16685 ft 352 kts 258°
2026-05-07 04:22 37.73140 -121.22536 16081 ft 351 kts 258°
2026-05-07 04:23 37.72617 -121.25528 15508 ft 347 kts 258°
2026-05-07 04:23 37.72099 -121.28485 14943 ft 344 kts 258°
2026-05-07 04:23 37.71581 -121.31429 14402 ft 341 kts 258°
2026-05-07 04:23 37.71014 -121.34305 13945 ft 335 kts 253°
2026-05-07 04:24 37.70286 -121.37087 13438 ft 330 kts 251°
2026-05-07 04:24 37.69522 -121.39796 12921 ft 326 kts 250°
2026-05-07 04:24 37.68762 -121.42475 12430 ft 322 kts 250°
2026-05-07 04:24 37.68022 -121.45115 12014 ft 316 kts 250°
2026-05-07 04:25 37.67304 -121.47703 11597 ft 310 kts 250°
2026-05-07 04:25 37.66599 -121.50268 11091 ft 309 kts 250°
2026-05-07 04:25 37.65903 -121.52810 10516 ft 311 kts 251°
2026-05-07 04:25 37.65204 -121.55370 9970 ft 305 kts 251°
2026-05-07 04:26 37.64520 -121.57874 9326 ft 299 kts 251°
2026-05-07 04:26 37.63838 -121.60369 8688 ft 294 kts 252°
2026-05-07 04:26 37.63183 -121.62767 8024 ft 291 kts 252°
2026-05-07 04:26 37.62526 -121.65169 7402 ft 287 kts 252°
2026-05-07 04:27 37.61887 -121.67494 7118 ft 272 kts 253°
2026-05-07 04:27 37.61409 -121.69723 6852 ft 254 kts 266°
2026-05-07 04:27 37.61297 -121.71876 6657 ft 239 kts 269°
2026-05-07 04:27 37.61189 -121.73907 6450 ft 225 kts 269°
2026-05-07 04:28 37.61072 -121.75855 6249 ft 220 kts 268°
2026-05-07 04:28 37.60948 -121.77788 6035 ft 220 kts 268°
2026-05-07 04:28 37.60824 -121.79673 6036 ft 219 kts 268°
2026-05-07 04:28 37.60696 -121.81600 6061 ft 219 kts 268°
2026-05-07 04:29 37.60665 -121.83495 6077 ft 216 kts 273°
2026-05-07 04:29 37.60688 -121.85391 6077 ft 217 kts 274°
2026-05-07 04:29 37.60709 -121.87288 6165 ft 214 kts 274°
2026-05-07 04:29 37.60726 -121.89202 6131 ft 222 kts 274°
2026-05-07 04:30 37.60741 -121.91155 5702 ft 223 kts 274°
2026-05-07 04:30 37.60753 -121.93091 5266 ft 219 kts 272°
2026-05-07 04:30 37.60758 -121.94998 4777 ft 217 kts 271°
2026-05-07 04:30 37.60715 -121.96923 4254 ft 216 kts 270°
2026-05-07 04:31 37.60662 -121.98729 4096 ft 198 kts 270°
2026-05-07 04:31 37.60615 -122.00456 4004 ft 197 kts 269°
2026-05-07 04:31 37.60578 -122.02191 3757 ft 202 kts 272°
2026-05-07 04:31 37.60735 -122.03944 3260 ft 203 kts 278°
2026-05-07 04:32 37.60948 -122.05699 2812 ft 200 kts 277°
2026-05-07 04:32 37.61154 -122.07350 2705 ft 180 kts 281°
2026-05-07 04:32 37.61718 -122.08687 2604 ft 171 kts 311°
2026-05-07 04:32 37.62484 -122.09826 2402 ft 164 kts 308°
2026-05-07 04:33 37.63174 -122.10892 2173 ft 150 kts 307°
2026-05-07 04:33 37.63816 -122.11871 1987 ft 141 kts 308°
2026-05-07 04:33 37.64447 -122.12825 1811 ft 142 kts 307°
2026-05-07 04:33 37.65085 -122.13788 1607 ft 142 kts 307°
2026-05-07 04:34 37.65716 -122.14740 1411 ft 140 kts 308°
2026-05-07 04:34 37.66337 -122.15677 1228 ft 139 kts 307°
2026-05-07 04:34 37.66958 -122.16614 1043 ft 139 kts 308°
2026-05-07 04:34 37.67576 -122.17546 840 ft 139 kts 308°
2026-05-07 04:35 37.68183 -122.18461 675 ft 137 kts 308°
2026-05-07 04:35 37.68797 -122.19386 473 ft 137 kts 307°
2026-05-07 04:35 37.69409 -122.20309 295 ft 137 kts 307°
2026-05-07 04:35 37.70024 -122.21254 106 ft 141 kts 307°
2026-05-07 04:36 37.70637 -122.22186 6 ft 128 kts 307°
2026-05-07 04:36 37.71070 -122.22806 6 ft 47 kts 311°
2026-05-07 04:36 37.71203 -122.23000 5 ft 29 kts 317°
2026-05-07 04:36 37.71349 -122.23109 6 ft 17 kts 337°
2026-05-07 04:37 37.71380 -122.23124 4 ft 0 kts 340°
2026-05-07 04:37 37.71381 -122.23125 4 ft 1 kts 340°
2026-05-07 04:37 37.71417 -122.23140 4 ft 9 kts 345°
2026-05-07 04:37 37.71477 -122.23144 4 ft 9 kts 18°
2026-05-07 04:38 37.71498 -122.23082 7 ft 8 kts 107°
2026-05-07 04:38 37.71465 -122.23023 8 ft 8 kts 129°
2026-05-07 04:38 37.71429 -122.22970 10 ft 8 kts 130°
2026-05-07 04:38 37.71394 -122.22918 10 ft 8 kts 130°
2026-05-07 04:39 37.71360 -122.22868 11 ft 7 kts 129°
2026-05-07 04:39 37.71327 -122.22818 10 ft 7 kts 129°
2026-05-07 04:39 37.71295 -122.22769 10 ft 7 kts 130°
2026-05-07 04:39 37.71264 -122.22721 10 ft 7 kts 130°
2026-05-07 04:40 37.71233 -122.22675 10 ft 7 kts 130°
2026-05-07 04:40 37.71201 -122.22628 10 ft 8 kts 130°
2026-05-07 04:40 37.71163 -122.22573 8 ft 9 kts 130°
2026-05-07 04:40 37.71121 -122.22510 7 ft 9 kts 130°
2026-05-07 04:41 37.71080 -122.22447 7 ft 9 kts 129°
2026-05-07 04:41 37.71027 -122.22366 7 ft 17 kts 129°
2026-05-07 04:41 37.70931 -122.22220 7 ft 24 kts 130°
2026-05-07 04:41 37.70833 -122.22076 9 ft 19 kts 130°
2026-05-07 04:42 37.70748 -122.21948 10 ft 19 kts 130°
2026-05-07 04:42 37.70680 -122.21824 12 ft 14 kts 90°
2026-05-07 04:42 37.70743 -122.21735 13 ft 14 kts 40°
2026-05-07 04:42 37.70814 -122.21658 15 ft 13 kts 40°
2026-05-07 04:43 37.70883 -122.21587 14 ft 13 kts 36°
2026-05-07 04:43 37.70954 -122.21522 14 ft 13 kts 37°
2026-05-07 04:43 37.71024 -122.21522 13 ft 7 kts 324°
2026-05-07 04:43 37.71047 -122.21563 12 ft 5 kts 300°
2026-05-07 04:44 37.71051 -122.21573 12 ft 1 kts 299°
2026-05-07 04:44 37.71054 -122.21578 12 ft 0 kts 299°